Location: Cactus School
(34.5700°N, 118.0931°W)
Time: 13:08:23
(UTC-07:00)

S-56A Canister/Altair - Pass Details

Date: 16 April 2024
Orbit: 638 x 2488 km, 38.9° (Epoch: 29 May)

Event Time Altitude Azimuth Distance (km) Brightness Sun altitude
Rises 21:57:54 0° 285° (WNW) 4,060 12.2 -28.8°
Reaches altitude 10° 22:00:18 10° 287° (WNW) 3,301 11.5 -29.2°
Maximum altitude 22:08:56 77° 14° (NNE) 1,757 9.2 -30.5°
Enters shadow 22:13:17 46° 91° (E) 2,443 9.6 -31.2°
Drops below altitude 10° 22:21:59 10° 101° (E) 4,801 - -32.5°
Sets 22:26:12 0° 103° (ESE) 5,975 - -33.1°
